Location: Rostock
(54.0884°N, 12.1234°E)
Time: 01:04:27
(UTC+01:00)

ISS - Pass Details

Date: 14 November 2017
Orbit: 402 x 407 km, 51.6° (Epoch: 20 November)

Event Time Altitude Azimuth Distance (km) Brightness Sun altitude
Exits shadow 04:12:45 10° 114° (ESE) 1,429 -0.4 -29.7°
Drops below altitude 10° 04:12:49 10° 114° (ESE) 1,456 -0.4 -29.7°
Sets 04:14:55 0° 109° (ESE) 2,314 0.9 -29.4°
